Regional Weather Roundup
Issued by NWS

Home | Current Version | Previous Version | Graphics & Text | Print | Product List | Glossary On
Versions: 1 2 3 4 5 6 7 8 9 10 11 12 13 14 15 16 17 18 19 20 21 22 23 24 25 26 27 28 29 30 31 32 33 34 35 36 37 38 39 40 41 42 43 44 45 46 47 48 49 50
000
ASUS43 KLMK 030602
RWRKY
KENTUCKY REGIONAL WEATHER ROUNDUP
NATIONAL WEATHER SERVICE LOUISVILLE KY
200 AM EDT THU SEP 03 2015

NOTE "FAIR" INDICATES FEW OR NO CLOUDS BELOW 12,000 FEET
WITH NO SIGNIFICANT WEATHER AND/OR OBSTRUCTIONS TO VISIBILITY.

KYZ001>023-026-027-061>063-070>075-030700-
WESTERN AND SOUTH CENTRAL KENTUCKY

CITY           SKY/WX    TMP DP  RH WIND       PRES   REMARKS
PADUCAH        FAIR      69  67  93 CALM      30.01S
HENDERSON      FAIR      70  64  83 CALM      30.01S
OWENSBORO      FAIR      71  69  93 CALM      30.02F
HOPKINSVILLE   FAIR      74  67  78 CALM      30.02S
BOWLING GREEN  FAIR      71  67  87 CALM      30.03F
GLASGOW        NOT AVBL
$$

KYZ024-025-028>034-038-045-046-053-030700-
NORTH CENTRAL KENTUCKY

CITY           SKY/WX    TMP DP  RH WIND       PRES   REMARKS
LOUISVILLE/SDF FAIR      77  69  76 CALM      30.02F
LOUISVILLE/LOU FAIR      74  70  87 CALM      30.03F
FORT KNOX      FAIR      68  67  94 CALM      30.02F FOG
$$

KYZ035>037-039>044-047>052-055>060-089>105-030700-
NORTHEAST KENTUCKY

CITY           SKY/WX    TMP DP  RH WIND       PRES   REMARKS
LEXINGTON      FAIR      70  67  90 CALM      30.04F FOG
COVINGTON      MOCLDY    71  67  87 SW3       30.03F
FRANKFORT      FAIR      69  66  90 NW3       30.03F FOG
$$

KYZ054-064>069-076>088-106>120-030700-
SOUTHEAST KENTUCKY

CITY           SKY/WX    TMP DP  RH WIND       PRES   REMARKS
JACKSON        FAIR      73  66  78 CALM      30.06F
LONDON         FAIR      70  64  81 CALM      30.06F
SOMERSET       NOT AVBL
MIDDLESBORO    FAIR      66  66  97 CALM      30.07F
MONTICELLO     FAIR      64  64 100 CALM      30.08F FOG
$$




USA.gov is the U.S. government's official web portal to all federal, state and local government web resources and services.